Year,Month,Day,Hour,Minute,Value (Times are PST for temperature in C)
2009,05,24,00,00,11.20
2009,05,24,00,01,11.20
2009,05,24,00,02,11.20
2009,05,24,00,03,11.10
2009,05,24,00,04,11.10
2009,05,24,00,05,11.00
2009,05,24,00,06,10.90
2009,05,24,00,07,10.90
2009,05,24,00,08,10.90
2009,05,24,00,09,10.90
2009,05,24,00,10,10.80
2009,05,24,00,11,10.80
2009,05,24,00,12,10.80
2009,05,24,00,13,10.70
2009,05,24,00,14,10.70
2009,05,24,00,15,10.70
2009,05,24,00,16,10.70
2009,05,24,00,17,10.70
2009,05,24,00,18,10.60
2009,05,24,00,19,10.60
2009,05,24,00,20,10.60
2009,05,24,00,21,10.60
2009,05,24,00,22,10.60
2009,05,24,00,23,10.60
2009,05,24,00,24,10.60
2009,05,24,00,25,10.60
2009,05,24,00,26,10.60
2009,05,24,00,27,10.60
2009,05,24,00,28,10.50
2009,05,24,00,29,10.40
2009,05,24,00,30,10.40
2009,05,24,00,31,10.40
2009,05,24,00,32,10.40
2009,05,24,00,33,10.40
2009,05,24,00,34,10.30
2009,05,24,00,35,10.30
2009,05,24,00,36,10.20
2009,05,24,00,37,10.20
2009,05,24,00,38,10.10
2009,05,24,00,39,10.10
2009,05,24,00,40,10.00
2009,05,24,00,41,9.90
2009,05,24,00,42,9.90
2009,05,24,00,43,9.90
2009,05,24,00,44,9.90
2009,05,24,00,45,9.90
2009,05,24,00,46,9.90
2009,05,24,00,47,9.90
2009,05,24,00,48,9.90
2009,05,24,00,49,9.90
2009,05,24,00,50,9.90
2009,05,24,00,51,9.90
2009,05,24,00,52,9.90
2009,05,24,00,53,9.80
2009,05,24,00,54,9.80
2009,05,24,00,55,9.80
2009,05,24,00,56,9.80
2009,05,24,00,57,9.80
2009,05,24,00,58,9.80
2009,05,24,00,59,9.70
2009,05,24,01,00,9.70
2009,05,24,01,01,9.70
2009,05,24,01,02,9.70
2009,05,24,01,03,9.70
2009,05,24,01,04,9.70
2009,05,24,01,05,9.70
2009,05,24,01,06,9.70
2009,05,24,01,07,9.70
2009,05,24,01,08,9.70
2009,05,24,01,09,9.70
2009,05,24,01,10,9.70
2009,05,24,01,11,9.70
2009,05,24,01,12,9.70
2009,05,24,01,13,9.70
2009,05,24,01,14,9.70
2009,05,24,01,15,9.70
2009,05,24,01,16,9.70
2009,05,24,01,17,9.60
2009,05,24,01,18,9.60
2009,05,24,01,19,9.60
2009,05,24,01,20,9.60
2009,05,24,01,21,9.60
2009,05,24,01,22,9.60
2009,05,24,01,23,9.50
2009,05,24,01,24,9.50
2009,05,24,01,25,9.50
2009,05,24,01,26,9.50
2009,05,24,01,27,9.50
2009,05,24,01,28,9.40
2009,05,24,01,29,9.40
2009,05,24,01,30,9.40
2009,05,24,01,31,9.40
2009,05,24,01,32,9.30
2009,05,24,01,33,9.30
2009,05,24,01,34,9.30
2009,05,24,01,35,9.30
2009,05,24,01,36,9.30
2009,05,24,01,37,9.30
2009,05,24,01,38,9.30
2009,05,24,01,39,9.30
2009,05,24,01,40,9.30
2009,05,24,01,41,9.30
2009,05,24,01,42,9.20
2009,05,24,01,43,9.20
2009,05,24,01,44,9.20
2009,05,24,01,45,9.20
2009,05,24,01,46,9.20
2009,05,24,01,47,9.20
2009,05,24,01,48,9.20
2009,05,24,01,49,9.20
2009,05,24,01,50,9.10
2009,05,24,01,51,9.10
2009,05,24,01,52,9.10
2009,05,24,01,53,9.10
2009,05,24,01,54,9.10
2009,05,24,01,55,9.10
2009,05,24,01,56,9.10
2009,05,24,01,57,9.10
2009,05,24,01,58,9.00
2009,05,24,01,59,9.00
2009,05,24,02,00,9.00
2009,05,24,02,01,9.00
2009,05,24,02,02,9.00
2009,05,24,02,03,9.00
2009,05,24,02,04,8.90
2009,05,24,02,05,8.90
2009,05,24,02,06,8.90
2009,05,24,02,07,8.90
2009,05,24,02,08,8.80
2009,05,24,02,09,8.80
2009,05,24,02,10,8.80
2009,05,24,02,11,8.80
2009,05,24,02,12,8.80
2009,05,24,02,13,8.70
2009,05,24,02,14,8.70
2009,05,24,02,15,8.70
2009,05,24,02,16,8.70
2009,05,24,02,17,8.70
2009,05,24,02,18,8.70
2009,05,24,02,19,8.70
2009,05,24,02,20,8.70
2009,05,24,02,21,8.70
2009,05,24,02,22,8.70
2009,05,24,02,23,8.70
2009,05,24,02,24,8.70
2009,05,24,02,25,8.70
2009,05,24,02,26,8.70
2009,05,24,02,27,8.70
2009,05,24,02,28,8.70
2009,05,24,02,29,8.70
2009,05,24,02,30,8.70
2009,05,24,02,31,8.70
2009,05,24,02,32,8.70
2009,05,24,02,33,8.70
2009,05,24,02,34,8.70
2009,05,24,02,35,8.70
2009,05,24,02,36,8.70
2009,05,24,02,37,8.70
2009,05,24,02,38,8.70
2009,05,24,02,39,8.70
2009,05,24,02,40,8.70
2009,05,24,02,41,8.70
2009,05,24,02,42,8.70
2009,05,24,02,43,8.70
2009,05,24,02,44,8.70
2009,05,24,02,45,8.70
2009,05,24,02,46,8.60
2009,05,24,02,47,8.60
2009,05,24,02,48,8.60
2009,05,24,02,49,8.60
2009,05,24,02,50,8.60
2009,05,24,02,51,8.60
2009,05,24,02,52,8.60
2009,05,24,02,53,8.60
2009,05,24,02,54,8.60
2009,05,24,02,55,8.60
2009,05,24,02,56,8.60
2009,05,24,02,57,8.50
2009,05,24,02,58,8.50
2009,05,24,02,59,8.50
2009,05,24,03,00,8.50
2009,05,24,03,01,8.40
2009,05,24,03,02,8.40
2009,05,24,03,03,8.30
2009,05,24,03,04,8.30
2009,05,24,03,05,8.30
2009,05,24,03,06,8.30
2009,05,24,03,07,8.20
2009,05,24,03,08,8.20
2009,05,24,03,09,8.20
2009,05,24,03,10,8.20
2009,05,24,03,11,8.20
2009,05,24,03,12,8.20
2009,05,24,03,13,8.20
2009,05,24,03,14,8.20
2009,05,24,03,15,8.20
2009,05,24,03,16,8.20
2009,05,24,03,17,8.20
2009,05,24,03,18,8.20
2009,05,24,03,19,8.20
2009,05,24,03,20,8.20
2009,05,24,03,21,8.20
2009,05,24,03,22,8.10
2009,05,24,03,23,8.10
2009,05,24,03,24,8.10
2009,05,24,03,25,8.10
2009,05,24,03,26,8.10
2009,05,24,03,27,8.10
2009,05,24,03,28,8.10
2009,05,24,03,29,8.10
2009,05,24,03,30,8.10
2009,05,24,03,31,8.10
2009,05,24,03,32,8.10
2009,05,24,03,33,8.10
2009,05,24,03,34,8.00
2009,05,24,03,35,8.00
2009,05,24,03,36,8.00
2009,05,24,03,37,7.90
2009,05,24,03,38,7.90
2009,05,24,03,39,7.90
2009,05,24,03,40,7.90
2009,05,24,03,41,7.90
2009,05,24,03,42,7.90
2009,05,24,03,43,7.80
2009,05,24,03,44,7.80
2009,05,24,03,45,7.80
2009,05,24,03,46,7.80
2009,05,24,03,47,7.80
2009,05,24,03,48,7.80
2009,05,24,03,49,7.80
2009,05,24,03,50,7.80
2009,05,24,03,51,7.80
2009,05,24,03,52,7.80
2009,05,24,03,53,7.80
2009,05,24,03,54,7.80
2009,05,24,03,55,7.80
2009,05,24,03,56,7.80
2009,05,24,03,57,7.80
2009,05,24,03,58,7.80
2009,05,24,03,59,7.80
2009,05,24,04,00,7.80
2009,05,24,04,01,7.80
2009,05,24,04,02,7.80
2009,05,24,04,03,7.80
2009,05,24,04,04,7.80
2009,05,24,04,05,7.80
2009,05,24,04,06,7.80
2009,05,24,04,07,7.80
2009,05,24,04,08,7.80
2009,05,24,04,09,7.80
2009,05,24,04,10,7.70
2009,05,24,04,11,7.70
2009,05,24,04,12,7.70
2009,05,24,04,13,7.70
2009,05,24,04,14,7.70
2009,05,24,04,15,7.70
2009,05,24,04,16,7.70
2009,05,24,04,17,7.70
2009,05,24,04,18,7.70
2009,05,24,04,19,7.70
2009,05,24,04,20,7.60
2009,05,24,04,21,7.60
2009,05,24,04,22,7.60
2009,05,24,04,23,7.60
2009,05,24,04,24,7.60
2009,05,24,04,25,7.70
2009,05,24,04,26,7.70
2009,05,24,04,27,7.70
2009,05,24,04,28,7.70
2009,05,24,04,29,7.70
2009,05,24,04,30,7.70
2009,05,24,04,31,7.60
2009,05,24,04,32,7.60
2009,05,24,04,33,7.60
2009,05,24,04,34,7.60
2009,05,24,04,35,7.60
2009,05,24,04,36,7.50
2009,05,24,04,37,7.50
2009,05,24,04,38,7.50
2009,05,24,04,39,7.50
2009,05,24,04,40,7.50
2009,05,24,04,41,7.50
2009,05,24,04,42,7.50
2009,05,24,04,43,7.50
2009,05,24,04,44,7.50
2009,05,24,04,45,7.50
2009,05,24,04,46,7.40
2009,05,24,04,47,7.40
2009,05,24,04,48,7.40
2009,05,24,04,49,7.30
2009,05,24,04,50,7.30
2009,05,24,04,51,7.30
2009,05,24,04,52,7.30
2009,05,24,04,53,7.30
2009,05,24,04,54,7.30
2009,05,24,04,55,7.30
2009,05,24,04,56,7.30
2009,05,24,04,57,7.30
2009,05,24,04,58,7.30
2009,05,24,04,59,7.30
2009,05,24,05,00,7.30
2009,05,24,05,01,7.30
2009,05,24,05,02,7.30
2009,05,24,05,03,7.30
2009,05,24,05,04,7.30
2009,05,24,05,05,7.30
2009,05,24,05,06,7.30
2009,05,24,05,07,7.30
2009,05,24,05,08,7.30
2009,05,24,05,09,7.30
2009,05,24,05,10,7.30
2009,05,24,05,11,7.30
2009,05,24,05,12,7.30
2009,05,24,05,13,7.30
2009,05,24,05,14,7.30
2009,05,24,05,15,7.20
2009,05,24,05,16,7.20
2009,05,24,05,17,7.20
2009,05,24,05,18,7.20
2009,05,24,05,19,7.20
2009,05,24,05,20,7.20
2009,05,24,05,21,7.20
2009,05,24,05,22,7.20
2009,05,24,05,23,7.20
2009,05,24,05,24,7.10
2009,05,24,05,25,7.10
2009,05,24,05,26,7.10
2009,05,24,05,27,7.10
2009,05,24,05,28,7.10
2009,05,24,05,29,7.10
2009,05,24,05,30,7.10
2009,05,24,05,31,7.10
2009,05,24,05,32,7.10
2009,05,24,05,33,7.10
2009,05,24,05,34,7.10
2009,05,24,05,35,7.10
2009,05,24,05,36,7.10
2009,05,24,05,37,7.10
2009,05,24,05,38,7.10
2009,05,24,05,39,7.10
2009,05,24,05,40,7.10
2009,05,24,05,41,7.10
2009,05,24,05,42,7.10
2009,05,24,05,43,7.10
2009,05,24,05,44,7.10
2009,05,24,05,45,7.10
2009,05,24,05,46,7.10
2009,05,24,05,47,7.10
2009,05,24,05,48,7.10
2009,05,24,05,49,7.10
2009,05,24,05,50,7.00
2009,05,24,05,51,7.00
2009,05,24,05,52,7.00
2009,05,24,05,53,7.00
2009,05,24,05,54,7.00
2009,05,24,05,55,7.00
2009,05,24,05,56,7.10
2009,05,24,05,57,7.20
2009,05,24,05,58,7.50
2009,05,24,05,59,7.80
2009,05,24,06,00,7.90
2009,05,24,06,01,8.10
2009,05,24,06,02,8.20
2009,05,24,06,03,8.20
2009,05,24,06,04,8.30
2009,05,24,06,05,8.30
2009,05,24,06,06,8.40
2009,05,24,06,07,8.40
2009,05,24,06,08,8.40
2009,05,24,06,09,8.50
2009,05,24,06,10,8.50
2009,05,24,06,11,8.50
2009,05,24,06,12,8.50
2009,05,24,06,13,8.50
2009,05,24,06,14,8.50
2009,05,24,06,15,8.50
2009,05,24,06,16,8.50
2009,05,24,06,17,8.50
2009,05,24,06,18,8.50
2009,05,24,06,19,8.60
2009,05,24,06,20,8.60
2009,05,24,06,21,8.70
2009,05,24,06,22,8.70
2009,05,24,06,23,8.70
2009,05,24,06,24,8.70
2009,05,24,06,25,8.80
2009,05,24,06,26,8.80
2009,05,24,06,27,8.90
2009,05,24,06,28,8.90
2009,05,24,06,29,8.90
2009,05,24,06,30,8.90
2009,05,24,06,31,9.00
2009,05,24,06,32,9.10
2009,05,24,06,33,9.10
2009,05,24,06,34,9.20
2009,05,24,06,35,9.20
2009,05,24,06,36,9.20
2009,05,24,06,37,9.30
2009,05,24,06,38,9.30
2009,05,24,06,39,9.40
2009,05,24,06,40,9.40
2009,05,24,06,41,9.40
2009,05,24,06,42,9.50
2009,05,24,06,43,9.50
2009,05,24,06,44,9.60
2009,05,24,06,45,9.60
2009,05,24,06,46,9.70
2009,05,24,06,47,9.70
2009,05,24,06,48,9.70
2009,05,24,06,49,9.70
2009,05,24,06,50,9.70
2009,05,24,06,51,9.70
2009,05,24,06,52,9.70
2009,05,24,06,53,9.70
2009,05,24,06,54,9.80
2009,05,24,06,55,9.80
2009,05,24,06,56,9.80
2009,05,24,06,57,9.90
2009,05,24,06,58,9.90
2009,05,24,06,59,9.90
2009,05,24,07,00,9.90
2009,05,24,07,01,9.90
2009,05,24,07,02,10.10
2009,05,24,07,03,10.10
2009,05,24,07,04,10.10
2009,05,24,07,05,10.10
2009,05,24,07,06,10.20
2009,05,24,07,07,10.20
2009,05,24,07,08,10.20
2009,05,24,07,09,10.30
2009,05,24,07,10,10.40
2009,05,24,07,11,10.50
2009,05,24,07,12,10.60
2009,05,24,07,13,10.70
2009,05,24,07,14,10.70
2009,05,24,07,15,10.80
2009,05,24,07,16,10.90
2009,05,24,07,17,10.90
2009,05,24,07,18,11.00
2009,05,24,07,19,11.10
2009,05,24,07,20,11.10
2009,05,24,07,21,11.10
2009,05,24,07,22,11.10
2009,05,24,07,23,11.10
2009,05,24,07,24,11.20
2009,05,24,07,25,11.20
2009,05,24,07,26,11.30
2009,05,24,07,27,11.30
2009,05,24,07,28,11.30
2009,05,24,07,29,11.40
2009,05,24,07,30,11.40
2009,05,24,07,31,11.50
2009,05,24,07,32,11.60
2009,05,24,07,33,11.60
2009,05,24,07,34,11.70
2009,05,24,07,35,11.80
2009,05,24,07,36,11.80
2009,05,24,07,37,11.90
2009,05,24,07,38,11.90
2009,05,24,07,39,11.90
2009,05,24,07,40,11.90
2009,05,24,07,41,11.90
2009,05,24,07,42,11.90
2009,05,24,07,43,12.00
2009,05,24,07,44,12.00
2009,05,24,07,45,12.10
2009,05,24,07,46,12.10
2009,05,24,07,47,12.20
2009,05,24,07,48,12.20
2009,05,24,07,49,12.20
2009,05,24,07,50,12.20
2009,05,24,07,51,12.20
2009,05,24,07,52,12.10
2009,05,24,07,53,12.10
2009,05,24,07,54,12.10
2009,05,24,07,55,12.20
2009,05,24,07,56,12.20
2009,05,24,07,57,12.30
2009,05,24,07,58,12.40
2009,05,24,07,59,12.50
2009,05,24,08,00,12.50
2009,05,24,08,01,12.60
2009,05,24,08,02,12.70
2009,05,24,08,03,12.70
2009,05,24,08,04,12.70
2009,05,24,08,05,12.60
2009,05,24,08,06,12.60
2009,05,24,08,07,12.60
2009,05,24,08,08,12.60
2009,05,24,08,09,12.60
2009,05,24,08,10,12.70
2009,05,24,08,11,12.70
2009,05,24,08,12,12.70
2009,05,24,08,13,12.70
2009,05,24,08,14,12.80
2009,05,24,08,15,12.80
2009,05,24,08,16,12.80
2009,05,24,08,17,12.90
2009,05,24,08,18,12.90
2009,05,24,08,19,13.00
2009,05,24,08,20,13.10
2009,05,24,08,21,13.20
2009,05,24,08,22,13.20
2009,05,24,08,23,13.20
2009,05,24,08,24,13.20
2009,05,24,08,25,13.20
2009,05,24,08,26,13.20
2009,05,24,08,27,13.30
2009,05,24,08,28,13.30
2009,05,24,08,29,13.30
2009,05,24,08,30,13.40
2009,05,24,08,31,13.40
2009,05,24,08,32,13.50
2009,05,24,08,33,13.60
2009,05,24,08,34,13.70
2009,05,24,08,35,13.70
2009,05,24,08,36,13.70
2009,05,24,08,37,13.70
2009,05,24,08,38,13.70
2009,05,24,08,39,13.70
2009,05,24,08,40,13.70
2009,05,24,08,41,13.70
2009,05,24,08,42,13.80
2009,05,24,08,43,13.90
2009,05,24,08,44,14.00
2009,05,24,08,45,14.00
2009,05,24,08,46,14.10
2009,05,24,08,47,14.20
2009,05,24,08,48,14.20
2009,05,24,08,49,14.20
2009,05,24,08,50,14.20
2009,05,24,08,51,14.20
2009,05,24,08,52,14.20
2009,05,24,08,53,14.20
2009,05,24,08,54,14.30
2009,05,24,08,55,14.30
2009,05,24,08,56,14.30
2009,05,24,08,57,14.30
2009,05,24,08,58,14.30
2009,05,24,08,59,14.30
2009,05,24,09,00,14.30
2009,05,24,09,01,14.30
2009,05,24,09,02,14.30
2009,05,24,09,03,14.30
2009,05,24,09,04,14.40
2009,05,24,09,05,14.40
2009,05,24,09,06,14.40
2009,05,24,09,07,14.40
2009,05,24,09,08,14.50
2009,05,24,09,09,14.50
2009,05,24,09,10,14.40
2009,05,24,09,11,14.40
2009,05,24,09,12,14.30
2009,05,24,09,13,14.30
2009,05,24,09,14,14.30
2009,05,24,09,15,14.30
2009,05,24,09,16,14.30
2009,05,24,09,17,14.30
2009,05,24,09,18,14.30
2009,05,24,09,19,14.30
2009,05,24,09,20,14.30
2009,05,24,09,21,14.20
2009,05,24,09,22,14.30
2009,05,24,09,23,14.40
2009,05,24,09,24,14.50
2009,05,24,09,25,14.50
2009,05,24,09,26,14.60
2009,05,24,09,27,14.60
2009,05,24,09,28,14.60
2009,05,24,09,29,14.60
2009,05,24,09,30,14.60
2009,05,24,09,31,14.60
2009,05,24,09,32,14.60
2009,05,24,09,33,14.60
2009,05,24,09,34,14.70
2009,05,24,09,35,14.70
2009,05,24,09,36,14.80
2009,05,24,09,37,14.80
2009,05,24,09,38,14.80
2009,05,24,09,39,14.80
2009,05,24,09,40,14.90
2009,05,24,09,41,14.90
2009,05,24,09,42,14.90
2009,05,24,09,43,14.80
2009,05,24,09,44,14.80
2009,05,24,09,45,14.80
2009,05,24,09,46,14.70
2009,05,24,09,47,14.60
2009,05,24,09,48,14.60
2009,05,24,09,49,14.60
2009,05,24,09,50,14.50
2009,05,24,09,51,14.50
2009,05,24,09,52,14.60
2009,05,24,09,53,14.60
2009,05,24,09,54,14.60
2009,05,24,09,55,14.60
2009,05,24,09,56,14.60
2009,05,24,09,57,14.60
2009,05,24,09,58,14.80
2009,05,24,09,59,14.90
2009,05,24,10,00,15.00
2009,05,24,10,01,15.00
2009,05,24,10,02,15.00
2009,05,24,10,03,15.00
2009,05,24,10,04,15.10
2009,05,24,10,05,15.20
2009,05,24,10,06,15.30
2009,05,24,10,07,15.40
2009,05,24,10,08,15.50
2009,05,24,10,09,15.50
2009,05,24,10,10,15.60
2009,05,24,10,11,15.60
2009,05,24,10,12,15.60
2009,05,24,10,13,15.50
2009,05,24,10,14,15.50
2009,05,24,10,15,15.30
2009,05,24,10,16,15.30
2009,05,24,10,17,15.30
2009,05,24,10,18,15.30
2009,05,24,10,19,15.30
2009,05,24,10,20,15.30
2009,05,24,10,21,15.30
2009,05,24,10,22,15.30
2009,05,24,10,23,15.30
2009,05,24,10,24,15.40
2009,05,24,10,25,15.40
2009,05,24,10,26,15.50
2009,05,24,10,27,15.60
2009,05,24,10,28,15.60
2009,05,24,10,29,15.70
2009,05,24,10,30,15.70
2009,05,24,10,31,15.70
2009,05,24,10,32,15.70
2009,05,24,10,33,15.60
2009,05,24,10,34,15.70
2009,05,24,10,35,15.70
2009,05,24,10,36,15.70
2009,05,24,10,37,15.70
2009,05,24,10,38,15.60
2009,05,24,10,39,15.50
2009,05,24,10,40,15.50
2009,05,24,10,41,15.30
2009,05,24,10,42,15.30
2009,05,24,10,43,15.30
2009,05,24,10,44,15.20
2009,05,24,10,45,15.20
2009,05,24,10,46,15.10
2009,05,24,10,47,15.10
2009,05,24,10,48,15.10
2009,05,24,10,49,15.10
2009,05,24,10,50,15.10
2009,05,24,10,51,15.10
2009,05,24,10,52,15.20
2009,05,24,10,53,15.20
2009,05,24,10,54,15.30
2009,05,24,10,55,15.30
2009,05,24,10,56,15.50
2009,05,24,10,57,15.70
2009,05,24,10,58,15.90
2009,05,24,10,59,16.10
2009,05,24,11,00,16.20
2009,05,24,11,01,16.30
2009,05,24,11,02,16.30
2009,05,24,11,03,16.20
2009,05,24,11,04,16.10
2009,05,24,11,05,16.10
2009,05,24,11,06,16.10
2009,05,24,11,07,16.10
2009,05,24,11,08,16.10
2009,05,24,11,09,16.10
2009,05,24,11,10,16.10
2009,05,24,11,11,16.20
2009,05,24,11,12,16.20
2009,05,24,11,13,16.20
2009,05,24,11,14,16.10
2009,05,24,11,15,16.20
2009,05,24,11,16,16.30
2009,05,24,11,17,16.30
2009,05,24,11,18,16.20
2009,05,24,11,19,16.20
2009,05,24,11,20,16.20
2009,05,24,11,21,16.20
2009,05,24,11,22,16.10
2009,05,24,11,23,16.00
2009,05,24,11,24,15.90
2009,05,24,11,25,16.00
2009,05,24,11,26,16.10
2009,05,24,11,27,16.10
2009,05,24,11,28,16.10
2009,05,24,11,29,15.90
2009,05,24,11,30,15.80
2009,05,24,11,31,15.80
2009,05,24,11,32,15.80
2009,05,24,11,33,15.80
2009,05,24,11,34,15.80
2009,05,24,11,35,15.80
2009,05,24,11,36,15.80
2009,05,24,11,37,15.90
2009,05,24,11,38,16.00
2009,05,24,11,39,16.10
2009,05,24,11,40,16.20
2009,05,24,11,41,16.30
2009,05,24,11,42,16.30
2009,05,24,11,43,16.40
2009,05,24,11,44,16.50
2009,05,24,11,45,16.60
2009,05,24,11,46,16.40
2009,05,24,11,47,16.40
2009,05,24,11,48,16.30
2009,05,24,11,49,16.40
2009,05,24,11,50,16.40
2009,05,24,11,51,16.40
2009,05,24,11,52,16.40
2009,05,24,11,53,16.50
2009,05,24,11,54,16.70
2009,05,24,11,55,16.70
2009,05,24,11,56,16.70
2009,05,24,11,57,16.60
2009,05,24,11,58,16.60
2009,05,24,11,59,16.60
2009,05,24,12,00,16.40
2009,05,24,12,01,16.40
2009,05,24,12,02,16.60
2009,05,24,12,03,16.70
2009,05,24,12,04,16.80
2009,05,24,12,05,16.90
2009,05,24,12,06,16.80
2009,05,24,12,07,16.70
2009,05,24,12,08,16.70
2009,05,24,12,09,16.70
2009,05,24,12,10,16.80
2009,05,24,12,11,16.80
2009,05,24,12,12,16.80
2009,05,24,12,13,16.70
2009,05,24,12,14,16.70
2009,05,24,12,15,16.70
2009,05,24,12,16,16.80
2009,05,24,12,17,16.80
2009,05,24,12,18,16.90
2009,05,24,12,19,16.80
2009,05,24,12,20,16.80
2009,05,24,12,21,16.70
2009,05,24,12,22,16.70
2009,05,24,12,23,16.70
2009,05,24,12,24,16.60
2009,05,24,12,25,16.50
2009,05,24,12,26,16.50
2009,05,24,12,27,16.60
2009,05,24,12,28,16.60
2009,05,24,12,29,16.60
2009,05,24,12,30,16.70
2009,05,24,12,31,16.70
2009,05,24,12,32,16.50
2009,05,24,12,33,16.30
2009,05,24,12,34,16.30
2009,05,24,12,35,16.40
2009,05,24,12,36,16.60
2009,05,24,12,37,16.70
2009,05,24,12,38,16.90
2009,05,24,12,39,16.90
2009,05,24,12,40,16.90
2009,05,24,12,41,16.90
2009,05,24,12,42,16.90
2009,05,24,12,43,16.90
2009,05,24,12,44,17.00
2009,05,24,12,45,16.90
2009,05,24,12,46,16.90
2009,05,24,12,47,16.90
2009,05,24,12,48,16.80
2009,05,24,12,49,16.70
2009,05,24,12,50,16.70
2009,05,24,12,51,16.70
2009,05,24,12,52,16.70
2009,05,24,12,53,16.70
2009,05,24,12,54,16.70
2009,05,24,12,55,16.70
2009,05,24,12,56,16.70
2009,05,24,12,57,16.70
2009,05,24,12,58,16.70
2009,05,24,12,59,16.90
2009,05,24,13,00,16.90
2009,05,24,13,01,17.00
2009,05,24,13,02,17.10
2009,05,24,13,03,17.20
2009,05,24,13,04,17.20
2009,05,24,13,05,17.20
2009,05,24,13,06,17.20
2009,05,24,13,07,17.20
2009,05,24,13,08,17.10
2009,05,24,13,09,17.10
2009,05,24,13,10,17.00
2009,05,24,13,11,17.00
2009,05,24,13,12,17.00
2009,05,24,13,13,17.00
2009,05,24,13,14,17.00
2009,05,24,13,15,17.20
2009,05,24,13,16,17.20
2009,05,24,13,17,17.30
2009,05,24,13,18,17.20
2009,05,24,13,19,17.00
2009,05,24,13,20,17.00
2009,05,24,13,21,17.20
2009,05,24,13,22,17.20
2009,05,24,13,23,17.30
2009,05,24,13,24,17.50
2009,05,24,13,25,17.70
2009,05,24,13,26,17.50
2009,05,24,13,27,17.30
2009,05,24,13,28,17.20
2009,05,24,13,29,17.20
2009,05,24,13,30,17.20
2009,05,24,13,31,17.20
2009,05,24,13,32,17.30
2009,05,24,13,33,17.20
2009,05,24,13,34,17.10
2009,05,24,13,35,17.10
2009,05,24,13,36,17.20
2009,05,24,13,37,17.30
2009,05,24,13,38,17.40
2009,05,24,13,39,17.30
2009,05,24,13,40,17.30
2009,05,24,13,41,17.30
2009,05,24,13,42,17.40
2009,05,24,13,43,17.50
2009,05,24,13,44,17.50
2009,05,24,13,45,17.50
2009,05,24,13,46,17.40
2009,05,24,13,47,17.30
2009,05,24,13,48,17.30
2009,05,24,13,49,17.40
2009,05,24,13,50,17.40
2009,05,24,13,51,17.50
2009,05,24,13,52,17.60
2009,05,24,13,53,17.80
2009,05,24,13,54,17.90
2009,05,24,13,55,17.90
2009,05,24,13,56,17.90
2009,05,24,13,57,18.00
2009,05,24,13,58,18.00
2009,05,24,13,59,17.90
2009,05,24,14,00,17.80
2009,05,24,14,01,17.60
2009,05,24,14,02,17.50
2009,05,24,14,03,17.30
2009,05,24,14,04,17.30
2009,05,24,14,05,17.30
2009,05,24,14,06,17.50
2009,05,24,14,07,17.50
2009,05,24,14,08,17.40
2009,05,24,14,09,17.30
2009,05,24,14,10,17.30
2009,05,24,14,11,17.30
2009,05,24,14,12,17.30
2009,05,24,14,13,17.30
2009,05,24,14,14,17.30
2009,05,24,14,15,17.40
2009,05,24,14,16,17.30
2009,05,24,14,17,17.30
2009,05,24,14,18,17.20
2009,05,24,14,19,17.40
2009,05,24,14,20,17.50
2009,05,24,14,21,17.60
2009,05,24,14,22,17.80
2009,05,24,14,23,18.00
2009,05,24,14,24,18.10
2009,05,24,14,25,18.10
2009,05,24,14,26,18.00
2009,05,24,14,27,17.90
2009,05,24,14,28,17.60
2009,05,24,14,29,17.60
2009,05,24,14,30,17.50
2009,05,24,14,31,17.50
2009,05,24,14,32,17.60
2009,05,24,14,33,17.80
2009,05,24,14,34,17.70
2009,05,24,14,35,17.70
2009,05,24,14,36,17.80
2009,05,24,14,37,17.90
2009,05,24,14,38,18.00
2009,05,24,14,39,18.10
2009,05,24,14,40,18.10
2009,05,24,14,41,18.20
2009,05,24,14,42,18.20
2009,05,24,14,43,18.20
2009,05,24,14,44,18.20
2009,05,24,14,45,18.30
2009,05,24,14,46,18.40
2009,05,24,14,47,18.40
2009,05,24,14,48,18.20
2009,05,24,14,49,18.20
2009,05,24,14,50,18.20
2009,05,24,14,51,18.40
2009,05,24,14,52,18.30
2009,05,24,14,53,18.20
2009,05,24,14,54,18.20
2009,05,24,14,55,18.20
2009,05,24,14,56,18.10
2009,05,24,14,57,17.90
2009,05,24,14,58,17.80
2009,05,24,14,59,17.80
2009,05,24,15,00,17.90
2009,05,24,15,01,18.10
2009,05,24,15,02,18.20
2009,05,24,15,03,18.20
2009,05,24,15,04,18.20
2009,05,24,15,05,18.30
2009,05,24,15,06,18.20
2009,05,24,15,07,18.20
2009,05,24,15,08,18.20
2009,05,24,15,09,18.10
2009,05,24,15,10,18.00
2009,05,24,15,11,17.90
2009,05,24,15,12,18.10
2009,05,24,15,13,18.20
2009,05,24,15,14,18.20
2009,05,24,15,15,18.50
2009,05,24,15,16,18.70
2009,05,24,15,17,18.60
2009,05,24,15,18,18.50
2009,05,24,15,19,18.50
2009,05,24,15,20,18.60
2009,05,24,15,21,18.70
2009,05,24,15,22,18.80
2009,05,24,15,23,18.70
2009,05,24,15,24,18.70
2009,05,24,15,25,18.60
2009,05,24,15,26,18.50
2009,05,24,15,27,18.40
2009,05,24,15,28,18.30
2009,05,24,15,29,18.20
2009,05,24,15,30,18.10
2009,05,24,15,31,18.10
2009,05,24,15,32,18.00
2009,05,24,15,33,17.90
2009,05,24,15,34,18.00
2009,05,24,15,35,18.10
2009,05,24,15,36,18.20
2009,05,24,15,37,18.30
2009,05,24,15,38,18.20
2009,05,24,15,39,18.10
2009,05,24,15,40,18.10
2009,05,24,15,41,18.20
2009,05,24,15,42,18.40
2009,05,24,15,43,18.50
2009,05,24,15,44,18.50
2009,05,24,15,45,18.60
2009,05,24,15,46,18.50
2009,05,24,15,47,18.40
2009,05,24,15,48,18.20
2009,05,24,15,49,18.10
2009,05,24,15,50,18.10
2009,05,24,15,51,18.10
2009,05,24,15,52,18.00
2009,05,24,15,53,18.00
2009,05,24,15,54,18.10
2009,05,24,15,55,18.20
2009,05,24,15,56,18.20
2009,05,24,15,57,18.20
2009,05,24,15,58,18.10
2009,05,24,15,59,17.90
2009,05,24,16,00,17.70
2009,05,24,16,01,17.70
2009,05,24,16,02,17.70
2009,05,24,16,03,17.70
2009,05,24,16,04,17.60
2009,05,24,16,05,17.40
2009,05,24,16,06,17.30
2009,05,24,16,07,17.30
2009,05,24,16,08,17.30
2009,05,24,16,09,17.20
2009,05,24,16,10,17.20
2009,05,24,16,11,17.20
2009,05,24,16,12,17.20
2009,05,24,16,13,17.30
2009,05,24,16,14,17.30
2009,05,24,16,15,17.10
2009,05,24,16,16,17.10
2009,05,24,16,17,17.20
2009,05,24,16,18,17.30
2009,05,24,16,19,17.30
2009,05,24,16,20,17.20
2009,05,24,16,21,17.10
2009,05,24,16,22,17.00
2009,05,24,16,23,16.90
2009,05,24,16,24,16.90
2009,05,24,16,25,16.80
2009,05,24,16,26,16.80
2009,05,24,16,27,16.70
2009,05,24,16,28,16.70
2009,05,24,16,29,16.90
2009,05,24,16,30,16.90
2009,05,24,16,31,16.90
2009,05,24,16,32,17.00
2009,05,24,16,33,17.10
2009,05,24,16,34,17.10
2009,05,24,16,35,17.10
2009,05,24,16,36,17.10
2009,05,24,16,37,17.20
2009,05,24,16,38,17.20
2009,05,24,16,39,17.30
2009,05,24,16,40,17.30
2009,05,24,16,41,17.30
2009,05,24,16,42,17.30
2009,05,24,16,43,17.10
2009,05,24,16,44,17.00
2009,05,24,16,45,17.00
2009,05,24,16,46,17.10
2009,05,24,16,47,17.10
2009,05,24,16,48,17.20
2009,05,24,16,49,17.30
2009,05,24,16,50,17.30
2009,05,24,16,51,17.30
2009,05,24,16,52,17.20
2009,05,24,16,53,17.10
2009,05,24,16,54,17.00
2009,05,24,16,55,17.00
2009,05,24,16,56,17.10
2009,05,24,16,57,17.10
2009,05,24,16,58,17.20
2009,05,24,16,59,17.30
2009,05,24,17,00,17.30
2009,05,24,17,01,17.40
2009,05,24,17,02,17.40
2009,05,24,17,03,17.40
2009,05,24,17,04,17.50
2009,05,24,17,05,17.70
2009,05,24,17,06,17.80
2009,05,24,17,07,17.70
2009,05,24,17,08,17.70
2009,05,24,17,09,17.80
2009,05,24,17,10,17.90
2009,05,24,17,11,17.90
2009,05,24,17,12,18.00
2009,05,24,17,13,18.10
2009,05,24,17,14,18.20
2009,05,24,17,15,18.20
2009,05,24,17,16,18.20
2009,05,24,17,17,18.10
2009,05,24,17,18,18.10
2009,05,24,17,19,18.20
2009,05,24,17,20,18.20
2009,05,24,17,21,18.30
2009,05,24,17,22,18.40
2009,05,24,17,23,18.50
2009,05,24,17,24,18.60
2009,05,24,17,25,18.60
2009,05,24,17,26,18.70
2009,05,24,17,27,18.80
2009,05,24,17,28,18.90
2009,05,24,17,29,19.00
2009,05,24,17,30,19.10
2009,05,24,17,31,19.10
2009,05,24,17,32,19.20
2009,05,24,17,33,19.30
2009,05,24,17,34,19.30
2009,05,24,17,35,19.30
2009,05,24,17,36,19.40